{"data":{"norad_id":57336,"epoch":"2026-09-20T14:32:26.592576Z","epoch_age_seconds":115163,"freshness":"FRESH","line1":"1 57336U 23099J   26263.60586334 -.00000577  00000+0 -11447-4 0  9992","line2":"2 57336  43.0012 228.4215 0000575 324.4806  35.6007 15.27577856175922","mean_motion":15.27577856,"eccentricity":5.75e-5,"inclination_deg":43.0012,"raan_deg":228.4215,"arg_perigee_deg":324.4806,"mean_anomaly_deg":35.6007,"bstar":-1.1447e-5,"rev_number":17592,"period_min":94.266881019778,"perigee_km":482.66099738479,"apogee_km":483.45003452413,"semimajor_km":6861.1925159545,"source":"CELESTRAK","updated_at":"2026-09-21T09:00:33.597393Z"}}